カタログに戻る

ONEWEB-0263

運用中通信PO
NORAD 48981·PAYLOAD·🇬🇧 United Kingdom

打ち上げ Jul 1, 2021 から Vostochny Cosmodrome

Loading…

次のパス (今後24時間)

TLE

最新Source: CelesTrak SupGP

元期: Sep 14, 2026, 23:58 UTC

1 48981C 21060Q   26257.99880046 -.00004513  00000+0 -11819-1 0  2577
2 48981  87.9139 210.9485 0002142  71.2149  39.2865 13.16596695    16

AllMySatでONEWEB-0263をリアルタイム追跡

Download on the App Store